TimeCST,TemperatureF,Dew PointF,Humidity,Sea Level PressureIn,VisibilityMPH,Wind Direction,Wind SpeedMPH,Gust SpeedMPH,PrecipitationIn,Events,Conditions,WindDirDegrees,DateUTC
12:51 AM,51.1,35.1,54,29.84,10.0,WSW,4.6,-,N/A,,Clear,240,2012-12-16 06:51:00
1:51 AM,50.0,35.1,57,29.86,10.0,SW,6.9,-,N/A,,Clear,230,2012-12-16 07:51:00
2:51 AM,50.0,35.1,57,29.85,10.0,WSW,3.5,-,N/A,,Clear,250,2012-12-16 08:51:00
3:51 AM,51.1,35.1,54,29.87,10.0,West,8.1,-,N/A,,Partly Cloudy,280,2012-12-16 09:51:00
5:51 AM,48.0,35.1,61,29.87,10.0,WSW,4.6,-,N/A,,Clear,240,2012-12-16 11:51:00
6:51 AM,48.9,35.1,59,29.88,10.0,West,5.8,-,N/A,,Clear,270,2012-12-16 12:51:00
7:51 AM,46.9,34.0,61,29.88,10.0,West,5.8,-,N/A,,Clear,260,2012-12-16 13:51:00
8:51 AM,51.1,34.0,52,29.89,10.0,West,6.9,-,N/A,,Clear,260,2012-12-16 14:51:00
9:51 AM,55.9,36.0,47,29.89,10.0,SW,4.6,-,N/A,,Clear,230,2012-12-16 15:51:00
10:51 AM,61.0,33.1,35,29.88,10.0,West,16.1,-,N/A,,Clear,260,2012-12-16 16:51:00
11:51 AM,68.0,30.9,25,29.86,10.0,West,19.6,27.6,N/A,,Clear,260,2012-12-16 17:51:00
12:51 PM,70.0,30.0,23,29.81,10.0,West,19.6,32.2,N/A,,Clear,260,2012-12-16 18:51:00
1:51 PM,70.0,28.9,22,29.78,10.0,West,19.6,28.8,N/A,,Clear,270,2012-12-16 19:51:00
2:51 PM,71.1,27.0,19,29.75,10.0,West,21.9,29.9,N/A,,Clear,270,2012-12-16 20:51:00
3:51 PM,71.1,27.0,19,29.74,10.0,WSW,17.3,26.5,N/A,,Clear,250,2012-12-16 21:51:00
4:51 PM,70.0,26.1,19,29.75,10.0,West,19.6,27.6,N/A,,Clear,270,2012-12-16 22:51:00
5:51 PM,66.0,24.1,20,29.77,10.0,West,11.5,-,N/A,,Clear,270,2012-12-16 23:51:00
6:51 PM,64.0,25.0,23,29.80,10.0,West,11.5,-,N/A,,Clear,270,2012-12-17 00:51:00
7:51 PM,63.0,27.0,26,29.83,10.0,WSW,10.4,-,N/A,,Clear,250,2012-12-17 01:51:00
8:51 PM,61.0,28.0,29,29.84,10.0,West,18.4,-,N/A,,Clear,270,2012-12-17 02:51:00
9:51 PM,61.0,30.0,31,29.86,10.0,West,18.4,-,N/A,,Clear,270,2012-12-17 03:51:00
10:51 PM,59.0,30.9,35,29.88,10.0,West,18.4,25.3,N/A,,Clear,280,2012-12-17 04:51:00
11:51 PM,57.9,32.0,37,29.89,10.0,West,16.1,-,N/A,,Clear,280,2012-12-17 05:51:00